SCP
0 0 0 0 0 0 0 0 0 0 0 0 0 0 0 0 0 0 0 0 0 0 0 0 0 0 0 0 0 0 0 0 0 0 0 0 0 0 0 0 0 0 0 0 0 0 0 0 0
0 0 0 0 0 0 0 0 0 0 0 0 0 0 0 0 0 0 0 0 0 0 0 0 0 0 0 0 0 0 0 0 0 0 0 0 0 0 0 0 0 0 0 0 0 0 0 0 0
0 0 0 0 0 0 0 0 0 0 0 0 0 0 0 0 0 0 0 0 0 0 0 0 0 0 0 0 0 0 0 0 0 0 0 0 0 0 0 0 0 0 0 0 0 0 0 0 0
0 0 0 0 0 0 0 0 0 0 0 0 0 0 0 0 0 0 0 0 0 0 0 0 0 0 0 0 0 0 0 0 0 0 0 0 0 0 0 0 0 0 0 0 0 0 0 0 0
0 0 0 0 0 0 0 0 0 0 0 0 0 0 0 0 0 0 0 0 0 0 0 0 0 0 0 0 0 0 0 0 0 0 0 0 0 0 0 0 0 0 0 0 0 0 0 0 0
0 0 0 0 0 0 0 0 0 0 0 0 0 0 0 0 0 0 0 0 0 0 0 0 0 0 0 0 0 0 0 0 0 0 0 0 0 0 0 0 0 0 0 0 0 0 0 0 0
0 0 0 0 0 0 0 0 0 0 0 0 0 0 0 0 0 0 0 0 0 0 0 0 0 0 0 0 0 0 0 0 0 0 0 0 0 0 0 0 0 0 0 0 0 0 0 0 0
0 0 0 0 0 0 0 0 0 0 0 0 0 0 0 0 0 0 0 0 0 0 0 0 0 0 0 0 0 0 0 0 0 0 0 0 0 0 0 0 0 0 0 0 0 0 0 0 0
0 0 0 0 0 0 0 0 0 0 0 0 0 0 0 0 0 0 0 0 0 0 0 0 0 0 0 0 0 0 0 0 0 0 0 0 0 0 0 0 0 0 0 0 0 0 0 0 0
0 0 0 0 0 0 0 0 0 0 0 0 0 0 0 0 0 0 0 0 0 0 0 0 0 0 0 0 0 0 0 0 0 0 0 0 0 0 0 0 0 0 0 0 0 0 0 0 0
0 0 0 0 0 0 0 0 0 0 0 0 0 0 0 0 0 0 0 0 0 0 0 0 0 0 0 0 0 0 0 0 0 0 0 0 0 0 0 0 0 0 0 0 0 0 0 0 0
0 0 0 0 0 0 0 0 0 0 0 0 0 0 0 0 0 0 0 0 0 0 0 0 0 0 0 0 0 0 0 0 0 0 0 0 0 0 0 0 0 0 0 0 0 0 0 0 0
0 0 0 0 0 0 0 0 0 0 0 0 0 0 0 0 0 0 0 0 0 0 0 0 0 0 0 0 0 0 0 0 0 0 0 0 0 0 0 0 0 0 0 0 0 0 0 0 0
0 0 0 0 0 0 0 0 0 0 0 0 0 0 0 0 0 0 0 0 0 0 0 0 0 0 0 0 0 0 0 0 0 0 0 0 0 0 0 0 0 0 0 0 0 0 0 0 0
0 0 0 0 0 0 0 0 0 0 0 0 0 0 0 0 0 0 0 0 0 0 0 0 0 0 0 0 0 0 0 0 0 0 0 0 0 0 0 0 0 0 0 0 0 0 0 0 0
0 0 0 0 0 0 0 0 0 0 0 0 0 0 0 0 0 0 0 0 0 0 0 0 0 0 0 0 0 0 0 0 0 0 0 0 0 0 0 0 0 0 0 0 0 0 0 0 0
0 0 0 0 0 0 0 0 0 0 0 0 0 0 0 0 0 0 0 0 0 0 0 0 0 0 0 0 0 0 0 0 0 0 0 0 0 0 0 0 0 0 0 0 0 0 0 0 0
0 0 0 0 0 0 0 0 0 0 0 0 0 0 0 0 0 0 0 0 0 0 0 0 0 0 0 0 0 0 0 0 0 0 0 0 0 0 0 0 0 0 0 0 0 0 0 0 0
0 0 0 0 0 0 0 0 0 0 0 0 0 0 0 0 0 0 0 0 0 0 0 0 0 0 0 0 0 0 0 0 0 0 0 0 0 0 0 0 0 0 0 0 0 0 0 0 0
0 0 0 0 0 0 0 0 0 0 0 0 0 0 0 0 0 0 0 0 0 0 0 0 0 0 0 0 0 0 0 0 0 0 0 0 0 0 0 0 0 0 0 0 0 0 0 0 0
0 0 0 0 0 0 0 0 0 0 0 0 0 0 0 0 0 0 0 0 0 0 0 0 0 0 0 0 0 0 0 0 0 0 0 0 0 0 0 0 0 0 0 0 0 0 0 0 0
0 0 0 0 0 0 0 0 0 0 0 0 0 0 0 0 0 0 0 0 0 0 0 0 0 0 0 0 0 0 0 0 0 0 0 0 0 0 0 0 0 0 0 0 0 0 0 0 0
0 0 0 0 0 0 0 0 0 -0 0 0 0 0 0 0 0 0 0 0 0 0 0 0 0 0 0 0 0 0 0 0 0 0 0 0 0 0 0 0 0 0 0 0 0 0 0 0 0
0 0 0 0 0 0 0 0 0 -0 0 0 0 0 0 0 0 0 0 0 0 0 0 0 0 0 0 0 0 0 0 0 0 0 0 0 0 0 0 0 0 0 0 0 0 0 0 0 0
0 0 0 0 0 0 0 0 0 0 0 0 0 0 0 0 0 0 0 0 0 0 0 0 0 0 0 0 0 0 0 0 0 0 0 0 0 0 0 0 0 0 0 0 0 0 0 0 0
0 0 0 0 0 0 0 0 0 0 0 0 0 0 0 0 0 0 0 0 0 0 0 0 0 0 0 0 0 0 0 0 0 0 0 0 0 0 0 0 0 0 0 0 0 0 0 0 0
0 0 0 0 0 0 0 0 0 0 0 0 0 0 0 0 0 0 0 0 0 0 0 0 0 0 0 0 0 0 0 0 0 0 0 0 0 0 0 0 0 0 0 0 0 0 0 0 0
0 0 0 0 0 0 0 0 0 0 0 0 0 0 0 0 0 0 0 0 0 0 0 0 0 0 0 0 0 0 0 0 0 0 0 0 0 0 0 0 0 0 0 0 0 0 0 0 0
0 0 0 0 0 0 0 0 0 0 0 0 0 0 0 0 0 0 0 0 0 0 0 0 0 0 0 0 0 0 0 0 0 0 0 0 0 0 0 0 0 0 0 0 0 0 0 0 0
0 0 0 0 0 0 0 0 0 0 0 0 0 0 0 0 0 0 0 0 0 0 0 0 0 0 0 0 0 0 0 0 0 0 0 0 0 0 0 0 0 0 0 0 0 0 0 0 0
Wind_Speed
12 9 6 3 3 4 1 4 3 4 4 6 6 5 7 10 7 8 5 10 14 14 12 11 12 13 13 13 13 13 13 14 15 15 15 16 16 17 17 17 18 18 18 18 18 18 18 18 18
9 8 4 3 3 4 2 5 4 7 7 4 2 2 3 9 8 7 6 11 13 13 12 12 12 12 13 13 13 13 13 14 14 15 15 15 16 16 16 16 17 17 18 18 18 18 17 17 17
8 6 3 3 3 3 3 6 8 8 5 2 2 3 6 6 7 6 7 11 11 11 11 12 12 12 13 12 12 12 13 13 14 14 15 15 15 16 16 16 16 17 17 17 17 17 16 16 15
5 3 3 3 5 2 4 5 8 7 3 0 1 6 6 6 4 8 10 10 10 11 12 11 12 12 13 12 12 13 13 14 14 14 15 15 15 15 15 16 16 16 16 16 16 16 15 15 14
3 3 3 4 5 1 3 4 3 5 6 4 2 5 6 4 8 10 8 9 9 11 11 11 11 11 11 12 12 13 13 13 14 14 14 15 15 15 15 15 15 15 15 15 15 15 14 14 13
2 2 3 5 5 2 2 2 1 3 4 5 1 4 6 3 7 7 7 8 9 10 11 10 10 10 10 11 11 12 13 13 14 14 14 14 14 14 14 14 14 14 14 14 14 13 13 13 12
2 2 5 6 5 3 3 3 2 2 3 4 1 4 7 5 7 7 6 7 8 10 10 8 8 9 9 10 10 11 12 12 13 13 13 12 13 13 12 12 12 13 13 13 12 12 11 11 10
2 2 5 7 6 3 4 3 1 2 2 4 1 1 7 9 9 7 6 6 7 8 9 9 8 8 7 7 10 11 12 12 12 13 12 12 12 11 11 10 11 12 12 11 11 10 9 8 6
2 2 5 6 5 2 5 4 2 3 3 3 3 6 9 16 12 9 6 5 5 6 6 8 8 8 8 8 9 10 11 12 12 10 12 10 6 6 6 9 9 10 10 9 8 7 6 5 3
2 4 7 5 4 2 3 3 5 3 4 4 5 9 13 13 12 11 9 9 8 7 6 6 7 7 8 8 7 5 6 7 6 6 6 4 5 5 8 9 9 8 8 7 5 4 3 3 1
4 6 6 5 3 3 1 2 3 4 5 6 9 14 14 12 11 11 10 10 9 8 6 6 6 7 7 6 5 4 4 4 5 7 5 4 5 5 5 3 4 4 5 3 3 3 1 1 2
5 7 7 4 0 1 2 2 3 5 2 3 4 15 16 14 14 12 12 11 9 9 8 6 6 6 6 6 5 4 4 3 3 5 5 4 3 4 4 3 4 3 2 3 2 1 1 2 2
9 5 5 3 2 1 3 4 4 6 4 3 6 13 14 14 12 10 9 9 9 10 9 8 6 6 6 5 4 4 4 4 4 4 4 5 4 3 3 3 3 3 3 3 2 2 2 1 1
7 8 5 4 3 2 4 6 5 7 4 5 7 9 11 13 13 11 10 10 11 11 10 9 8 7 6 5 4 4 4 4 5 4 5 5 4 4 4 3 3 3 3 3 2 2 1 1 0
4 6 7 7 6 4 3 8 11 9 6 6 8 9 10 11 12 13 13 11 10 10 10 10 9 8 7 6 6 4 4 4 4 5 6 5 5 5 5 4 3 3 3 2 1 2 1 1 0
5 6 8 8 10 6 6 11 9 10 10 10 9 9 10 11 13 12 12 11 10 10 10 11 9 9 8 7 6 4 4 5 4 4 5 6 6 6 5 4 4 4 3 3 2 2 1 1 1
8 10 10 8 11 8 9 9 8 6 8 8 8 8 9 10 11 12 13 13 11 11 11 11 11 10 9 7 6 5 5 5 5 5 5 6 6 6 5 4 4 5 4 3 3 2 2 1 1
11 10 10 12 10 11 11 11 8 6 6 7 7 7 8 10 12 11 12 13 12 11 12 12 12 11 9 7 5 4 4 5 5 5 6 7 7 7 6 4 5 5 4 3 3 3 2 2 1
8 12 12 10 9 11 13 14 13 10 9 8 8 8 8 9 10 10 11 11 11 11 12 14 13 12 10 8 8 7 6 6 5 5 7 8 8 8 7 5 5 5 5 5 5 4 4 3 2
13 11 10 7 6 6 8 13 12 12 12 11 11 10 9 9 9 11 12 12 13 13 13 14 14 14 13 10 9 6 6 5 6 5 7 8 9 9 8 7 6 6 5 6 6 5 3 3 3
17 14 9 5 3 3 4 10 14 15 14 13 12 11 10 10 11 12 14 14 14 14 15 14 15 15 15 12 8 6 5 4 6 8 8 9 10 10 9 10 8 8 7 7 7 7 6 4 4
18 13 9 5 4 4 7 7 9 13 16 17 15 13 12 11 11 12 14 15 16 16 14 14 15 15 16 15 12 13 11 11 11 8 8 9 11 11 11 11 10 9 7 7 8 8 6 6 4
10 9 8 7 5 5 7 8 7 8 12 14 15 15 14 13 12 12 15 17 16 16 14 14 14 15 16 16 16 15 13 11 7 7 10 10 10 12 12 12 10 10 9 9 8 8 8 6 6
7 6 3 2 3 10 13 10 9 8 10 9 11 12 13 13 13 12 12 13 14 14 14 14 15 16 16 17 17 17 16 13 11 12 11 10 8 10 12 12 11 11 9 10 9 9 10 8 7
13 11 6 7 9 11 9 11 11 7 7 8 8 9 10 10 11 11 11 12 14 15 16 16 17 17 17 17 18 19 18 16 16 14 13 11 9 10 13 13 12 10 10 10 9 9 9 9 9
18 17 11 10 8 5 7 13 9 5 5 4 4 4 5 6 6 8 9 11 12 14 15 16 17 17 17 17 18 17 17 13 12 14 11 12 11 11 11 14 13 12 12 10 10 8 8 8 9
17 17 9 2 2 3 7 7 7 6 4 4 5 6 7 7 6 6 6 7 9 11 13 15 16 16 15 16 16 15 15 15 14 12 12 9 10 9 12 14 13 13 12 12 11 8 9 8 8
10 10 6 7 7 6 7 9 7 9 10 10 9 9 8 7 6 6 5 5 5 7 8 10 12 14 14 13 13 12 14 15 13 10 11 11 11 10 12 13 13 12 12 12 11 8 8 9 8
13 15 9 7 6 6 5 6 5 10 12 11 9 7 6 5 5 4 4 3 3 3 5 6 8 9 9 11 11 11 12 12 12 11 12 11 10 11 12 13 13 13 12 12 11 10 11 11 9
13 13 13 11 8 6 4 6 1 5 7 7 5 4 3 3 2 2 2 2 3 4 5 6 6 7 8 8 8 9 9 10 11 12 11 10 10 10 11 11 12 12 12 12 13 13 12 13 12
Wind_Direction
307 295 287 279 273 249 215 88 79 92 76 44 28 4 42 48 42 99 130 116 117 120 124 122 115 114 111 108 106 104 104 103 100 98 96 95 93 92 91 89 88 85 83 81 80 79 78 77 76
307 308 289 265 271 275 127 110 101 71 78 88 71 320 79 76 73 103 119 117 121 125 131 123 119 117 114 111 109 107 106 104 102 100 99 96 94 93 91 91 90 87 85 83 82 80 79 78 77
292 280 284 280 265 300 50 89 95 83 88 120 116 25 42 72 105 119 120 125 123 123 119 122 123 120 117 114 112 111 109 107 106 102 100 98 95 93 92 90 90 88 87 85 83 81 80 79 76
297 272 253 263 272 339 35 71 99 115 122 333 117 101 77 42 81 115 128 128 124 118 119 127 125 123 121 118 115 115 112 110 108 104 101 99 96 94 93 92 90 88 88 86 84 82 80 78 74
266 269 248 256 265 358 57 61 108 148 160 162 234 106 90 58 88 118 137 129 124 119 123 130 125 124 124 122 119 118 116 112 109 106 104 101 100 98 96 95 93 92 90 88 86 84 80 77 72
282 264 245 241 243 195 127 98 201 197 138 123 212 104 99 118 124 139 135 130 125 122 125 128 122 122 123 121 119 118 118 114 111 109 107 106 104 102 100 99 98 96 94 92 89 86 83 77 70
266 264 261 262 254 210 140 118 227 217 152 147 182 104 119 147 136 141 136 132 126 125 129 135 135 128 121 117 116 116 116 114 112 110 106 103 103 101 99 99 102 100 97 95 93 90 86 80 70
294 273 250 258 263 242 127 133 287 309 95 79 32 86 141 154 142 141 140 128 127 131 139 147 150 144 136 121 115 114 114 114 111 110 108 106 105 103 102 98 101 103 101 99 97 95 92 88 78
304 240 239 237 256 257 125 151 125 10 81 92 62 44 110 136 143 146 144 135 138 146 151 153 156 152 146 138 128 119 116 118 118 118 127 132 130 121 108 102 104 106 106 105 106 110 114 114 112
189 216 232 252 274 297 132 175 147 173 172 160 125 97 118 140 154 162 166 166 164 166 166 158 158 154 149 143 143 141 136 143 144 146 163 168 126 116 110 105 107 112 116 120 129 149 180 197 189
200 222 240 260 312 352 99 226 175 203 212 193 169 148 147 160 169 175 178 177 173 171 171 169 161 154 148 143 157 158 149 164 159 161 174 129 112 121 123 122 123 131 150 159 171 205 219 92 56
221 236 241 244 299 333 261 246 223 233 250 64 127 151 158 173 183 185 184 181 177 177 177 177 164 156 154 154 161 154 148 160 154 157 158 140 141 151 152 157 170 171 179 164 175 161 105 94 81
228 239 239 250 190 241 282 256 248 245 226 120 115 145 167 180 188 189 186 182 180 183 179 177 174 166 161 160 162 160 156 162 157 154 165 155 148 156 151 157 161 169 158 167 171 146 137 111 82
214 227 231 233 222 219 249 257 243 246 223 164 155 169 181 186 186 186 190 190 187 184 181 176 181 176 167 166 169 169 163 162 158 159 174 170 158 159 154 154 165 166 160 159 159 145 147 151 140
228 227 227 217 210 208 223 252 235 238 223 201 191 189 189 190 188 191 193 194 188 183 179 177 182 181 178 177 178 177 169 164 164 166 174 178 169 164 162 164 173 170 151 143 153 150 174 182 187
197 221 229 210 198 196 201 247 236 223 214 218 208 200 193 193 193 193 191 193 190 181 180 178 180 184 186 185 181 178 175 173 174 170 171 179 180 170 169 168 172 168 157 164 171 179 194 200 187
197 212 218 216 193 186 203 247 248 223 207 216 215 207 193 191 196 193 190 190 191 185 181 179 179 184 186 186 184 186 180 178 178 175 175 179 182 181 172 174 174 168 166 175 175 183 188 186 161
194 209 216 215 189 196 213 235 245 232 212 216 222 221 198 192 197 193 188 188 188 185 182 180 180 183 182 181 184 192 191 185 184 182 183 180 183 186 180 178 178 170 170 182 178 184 188 179 163
214 209 217 220 200 198 222 237 241 236 223 222 226 227 213 202 193 185 184 183 183 185 184 184 183 184 182 183 187 193 196 192 194 192 187 186 186 186 185 181 181 177 181 187 184 179 187 197 166
239 236 229 225 198 201 233 246 244 238 231 223 220 220 217 206 192 186 182 183 189 191 190 189 187 185 186 189 189 190 185 195 198 194 194 194 190 187 190 187 185 184 184 187 187 180 181 190 171
224 228 227 225 154 208 269 265 244 240 237 233 226 221 217 208 198 189 185 188 191 196 195 195 193 189 188 185 181 182 188 189 195 199 200 202 197 191 190 193 190 189 187 192 192 186 185 189 191
219 216 229 228 190 221 202 263 239 228 226 224 221 219 221 217 206 194 188 191 195 199 196 197 195 193 189 186 187 187 193 198 199 195 197 198 199 197 195 196 196 193 192 194 194 193 191 182 184
208 188 211 226 228 250 228 254 255 230 232 222 214 213 215 217 212 204 194 195 197 196 195 197 197 198 193 192 193 195 202 204 196 191 194 197 200 200 198 198 198 197 196 197 193 192 193 192 187
161 133 140 198 217 239 221 234 259 218 226 222 212 208 209 213 214 211 202 193 195 193 193 194 199 203 199 197 197 200 204 201 195 196 199 199 198 200 201 199 200 200 198 198 196 194 195 197 195
163 150 167 191 210 233 191 219 248 214 220 215 210 207 208 211 211 210 204 195 194 192 193 195 199 205 203 201 202 205 207 205 205 203 202 197 197 200 202 198 201 201 201 198 193 194 197 196 194
186 180 181 192 203 216 183 221 243 211 202 204 215 225 228 228 220 211 207 200 196 194 194 196 201 207 205 205 207 207 207 208 212 211 206 202 203 201 194 198 202 202 199 196 193 196 196 195 194
187 201 211 199 130 207 218 230 245 202 194 211 232 241 242 240 235 227 218 206 198 196 197 199 202 207 208 208 208 209 208 210 213 211 209 205 203 197 193 194 198 200 198 196 192 196 193 189 190
189 175 180 198 185 218 237 218 216 183 197 207 217 227 233 235 234 229 222 216 208 204 204 204 206 210 212 211 211 211 210 211 213 210 210 209 203 195 192 194 195 197 197 194 192 188 184 183 184
178 186 186 185 208 195 225 241 207 185 186 198 208 214 218 217 216 215 213 206 205 205 206 209 214 215 215 214 215 214 214 211 210 212 213 208 202 196 196 194 193 193 194 190 190 188 180 182 179
196 193 188 190 200 212 228 257 94 114 150 166 173 169 168 168 170 186 197 200 213 216 217 218 220 221 221 218 219 218 216 211 210 213 212 204 201 197 195 190 190 192 192 189 188 185 182 182 180